Time,TemperatureF,DewpointF,PressureIn,WindDirection,WindDirectionDegrees,WindSpeedMPH,WindSpeedGustMPH,Humidity,HourlyPrecipIn,Conditions,Clouds,dailyrainin,SolarRadiationWatts/m^2,SoftwareType,DateUTC
2013-02-04 00:00:00,23.3,15.0,29.65,NNE,20,5.0,7.0,70,0.00,,,0.00,0,Wunderground v.1.15,2013-02-04 05:00:00,
2013-02-04 00:10:00,23.3,15.3,29.65,NNE,13,5.0,5.0,71,0.00,,,0.00,0,Wunderground v.1.15,2013-02-04 05:10:00,
2013-02-04 00:20:00,23.1,14.8,29.65,West,276,3.0,8.0,70,0.00,,,0.00,0,Wunderground v.1.15,2013-02-04 05:20:00,
2013-02-04 00:30:00,23.0,14.7,29.64,South,182,3.0,5.0,70,0.00,,,0.00,0,Wunderground v.1.15,2013-02-04 05:30:00,
2013-02-04 00:40:00,22.8,14.5,29.64,West,263,3.0,3.0,70,0.00,,,0.00,0,Wunderground v.1.15,2013-02-04 05:40:00,
2013-02-04 00:50:00,22.6,14.3,29.65,NW,319,4.0,14.0,70,0.00,,,0.00,0,Wunderground v.1.15,2013-02-04 05:50:00,
2013-02-04 01:00:00,22.6,14.9,29.65,SE,127,3.0,3.0,72,0.00,,,0.00,0,Wunderground v.1.15,2013-02-04 06:00:00,
2013-02-04 01:10:00,22.6,14.6,29.65,ENE,65,2.0,3.0,71,0.00,,,0.00,0,Wunderground v.1.15,2013-02-04 06:10:00,
2013-02-04 01:20:00,22.5,14.5,29.65,ENE,76,2.0,12.0,71,0.00,,,0.00,0,Wunderground v.1.15,2013-02-04 06:20:00,
2013-02-04 01:30:00,22.4,14.7,29.65,NNE,19,3.0,6.0,72,0.00,,,0.00,0,Wunderground v.1.15,2013-02-04 06:30:00,
2013-02-04 01:40:00,22.2,14.5,29.64,ENE,57,3.0,3.0,72,0.00,,,0.00,0,Wunderground v.1.15,2013-02-04 06:40:00,
2013-02-04 01:50:00,22.1,14.8,29.64,NNW,337,3.0,14.0,73,0.00,,,0.00,0,Wunderground v.1.15,2013-02-04 06:50:00,
2013-02-04 02:00:00,22.0,14.7,29.64,NE,34,3.0,3.0,73,0.00,,,0.00,0,Wunderground v.1.15,2013-02-04 07:00:00,
2013-02-04 02:10:00,21.9,14.6,29.64,North,10,3.0,9.0,73,0.00,,,0.00,0,Wunderground v.1.15,2013-02-04 07:10:00,
2013-02-04 02:20:00,21.8,14.5,29.64,ENE,73,4.0,4.0,73,0.00,,,0.00,0,Wunderground v.1.15,2013-02-04 07:20:00,
2013-02-04 02:30:00,21.6,14.0,29.64,NW,313,3.0,3.0,72,0.00,,,0.00,0,Wunderground v.1.15,2013-02-04 07:30:00,
2013-02-04 02:40:00,21.5,14.2,29.65,West,271,3.0,3.0,73,0.00,,,0.00,0,Wunderground v.1.15,2013-02-04 07:40:00,
2013-02-04 02:50:00,21.5,14.5,29.64,North,355,2.0,2.0,74,0.00,,,0.00,0,Wunderground v.1.15,2013-02-04 07:50:00,
2013-02-04 03:00:00,21.3,14.0,29.65,NNE,23,2.0,4.0,73,0.00,,,0.00,0,Wunderground v.1.15,2013-02-04 08:00:00,
2013-02-04 03:10:00,21.2,14.2,29.64,NE,48,3.0,3.0,74,0.00,,,0.00,0,Wunderground v.1.15,2013-02-04 08:10:00,
2013-02-04 03:20:00,21.2,13.9,29.64,SSE,161,2.0,2.0,73,0.00,,,0.00,0,Wunderground v.1.15,2013-02-04 08:20:00,
2013-02-04 03:30:00,21.0,13.7,29.64,West,276,1.0,1.0,73,0.00,,,0.00,0,Wunderground v.1.15,2013-02-04 08:30:00,
2013-02-04 03:40:00,20.9,13.9,29.64,North,5,1.0,1.0,74,0.00,,,0.00,0,Wunderground v.1.15,2013-02-04 08:40:00,
2013-02-04 03:50:00,20.8,13.5,29.64,ESE,109,1.0,10.0,73,0.00,,,0.00,0,Wunderground v.1.15,2013-02-04 08:50:00,
2013-02-04 04:00:00,20.8,13.5,29.64,SE,144,1.0,1.0,73,0.00,,,0.00,0,Wunderground v.1.15,2013-02-04 09:00:00,
2013-02-04 04:10:00,20.6,13.3,29.63,NE,34,1.0,2.0,73,0.00,,,0.00,0,Wunderground v.1.15,2013-02-04 09:10:00,
2013-02-04 04:20:00,20.6,13.0,29.64,North,5,2.0,2.0,72,0.00,,,0.00,0,Wunderground v.1.15,2013-02-04 09:20:00,
2013-02-04 04:30:00,20.6,13.0,29.64,ESE,107,1.0,1.0,72,0.00,,,0.00,0,Wunderground v.1.15,2013-02-04 09:30:00,
2013-02-04 04:40:00,20.5,12.9,29.64,WNW,303,1.0,1.0,72,0.00,,,0.00,0,Wunderground v.1.15,2013-02-04 09:40:00,
2013-02-04 04:50:00,20.4,12.8,29.63,East,99,1.0,1.0,72,0.00,,,0.00,0,Wunderground v.1.15,2013-02-04 09:50:00,
2013-02-04 05:00:00,20.3,13.0,29.63,SE,144,0.0,1.0,73,0.00,,,0.00,0,Wunderground v.1.15,2013-02-04 10:00:00,
2013-02-04 05:10:00,20.2,13.2,29.63,WSW,237,0.0,1.0,74,0.00,,,0.00,0,Wunderground v.1.15,2013-02-04 10:10:00,
2013-02-04 05:20:00,20.1,13.4,29.63,SSW,211,1.0,1.0,75,0.00,,,0.00,0,Wunderground v.1.15,2013-02-04 10:20:00,
2013-02-04 05:30:00,20.2,13.5,29.63,SSW,199,2.0,2.0,75,0.00,,,0.00,0,Wunderground v.1.15,2013-02-04 10:30:00,
2013-02-04 05:40:00,20.3,13.6,29.63,SSE,153,2.0,2.0,75,0.00,,,0.00,0,Wunderground v.1.15,2013-02-04 10:40:00,
2013-02-04 05:50:00,20.4,13.7,29.63,SW,234,1.0,7.0,75,0.00,,,0.00,0,Wunderground v.1.15,2013-02-04 10:50:00,
2013-02-04 06:00:00,20.4,13.4,29.63,SW,234,3.0,3.0,74,0.00,,,0.00,0,Wunderground v.1.15,2013-02-04 11:00:00,
2013-02-04 06:10:00,20.4,13.4,29.63,South,187,2.0,2.0,74,0.00,,,0.00,0,Wunderground v.1.15,2013-02-04 11:10:00,
2013-02-04 06:20:00,20.3,13.3,29.63,South,178,2.0,2.0,74,0.00,,,0.00,0,Wunderground v.1.15,2013-02-04 11:20:00,
2013-02-04 06:30:00,20.4,13.1,29.63,South,190,2.0,3.0,73,0.00,,,0.00,0,Wunderground v.1.15,2013-02-04 11:30:00,
2013-02-04 06:40:00,20.6,13.0,29.63,SW,220,3.0,3.0,72,0.00,,,0.00,0,Wunderground v.1.15,2013-02-04 11:40:00,
2013-02-04 06:50:00,20.7,12.8,29.63,South,180,3.0,3.0,71,0.00,,,0.00,5,Wunderground v.1.15,2013-02-04 11:50:00,
2013-02-04 07:00:00,20.8,12.9,29.63,SSE,163,3.0,3.0,71,0.00,,,0.00,9,Wunderground v.1.15,2013-02-04 12:00:00,
2013-02-04 07:10:00,20.9,12.6,29.63,South,169,3.0,4.0,70,0.00,,,0.00,12,Wunderground v.1.15,2013-02-04 12:10:00,
2013-02-04 07:20:00,20.9,12.6,29.64,SW,223,3.0,4.0,70,0.00,,,0.00,14,Wunderground v.1.15,2013-02-04 12:20:00,
2013-02-04 07:30:00,21.0,12.7,29.64,SW,214,3.0,5.0,70,0.00,,,0.00,18,Wunderground v.1.15,2013-02-04 12:30:00,
2013-02-04 07:40:00,21.1,12.5,29.64,South,171,3.0,3.0,69,0.00,,,0.00,19,Wunderground v.1.15,2013-02-04 12:40:00,
2013-02-04 07:50:00,21.1,12.5,29.64,South,180,3.0,9.0,69,0.00,,,0.00,21,Wunderground v.1.15,2013-02-04 12:50:00,
2013-02-04 08:00:00,21.4,12.5,29.65,SSW,202,3.0,3.0,68,0.00,,,0.00,23,Wunderground v.1.15,2013-02-04 13:00:00,
2013-02-04 08:10:00,21.6,12.7,29.65,SSE,154,3.0,4.0,68,0.00,,,0.00,26,Wunderground v.1.15,2013-02-04 13:10:00,
2013-02-04 08:20:00,22.0,12.7,29.65,South,190,3.0,8.0,67,0.00,,,0.00,26,Wunderground v.1.15,2013-02-04 13:20:00,
2013-02-04 08:30:00,22.2,12.6,29.65,South,177,3.0,6.0,66,0.00,,,0.00,28,Wunderground v.1.15,2013-02-04 13:30:00,
2013-02-04 08:40:00,22.5,12.8,29.64,SSW,193,4.0,11.0,66,0.00,,,0.00,28,Wunderground v.1.15,2013-02-04 13:40:00,
2013-02-04 08:50:00,22.8,12.8,29.64,SSW,207,4.0,11.0,65,0.00,,,0.00,30,Wunderground v.1.15,2013-02-04 13:50:00,
2013-02-04 09:00:00,23.0,13.0,29.64,South,189,4.0,4.0,65,0.00,,,0.00,47,Wunderground v.1.15,2013-02-04 14:00:00,
2013-02-04 09:10:00,23.3,12.6,29.64,East,84,4.0,4.0,63,0.00,,,0.00,127,Wunderground v.1.15,2013-02-04 14:10:00,
2013-02-04 09:20:00,23.8,13.4,29.64,ESE,105,2.0,6.0,64,0.00,,,0.00,39,Wunderground v.1.15,2013-02-04 14:20:00,
2013-02-04 09:30:00,23.8,11.9,29.64,WSW,239,5.0,5.0,60,0.00,,,0.00,35,Wunderground v.1.15,2013-02-04 14:30:00,
2013-02-04 09:40:00,24.0,11.7,29.64,ENE,58,4.0,13.0,59,0.00,,,0.00,37,Wunderground v.1.15,2013-02-04 14:40:00,
2013-02-04 09:50:00,24.2,11.9,29.63,SSW,204,4.0,4.0,59,0.00,,,0.00,35,Wunderground v.1.15,2013-02-04 14:50:00,
2013-02-04 10:00:00,24.7,12.8,29.63,SSE,167,5.0,5.0,60,0.00,,,0.00,60,Wunderground v.1.15,2013-02-04 15:00:00,
2013-02-04 10:10:00,24.9,12.6,29.63,SSE,150,4.0,4.0,59,0.00,,,0.00,132,Wunderground v.1.15,2013-02-04 15:10:00,
2013-02-04 10:20:00,25.1,11.6,29.64,WNW,302,5.0,5.0,56,0.00,,,0.00,213,Wunderground v.1.15,2013-02-04 15:20:00,
2013-02-04 10:30:00,25.3,11.8,29.63,SSE,148,5.0,6.0,56,0.00,,,0.00,88,Wunderground v.1.15,2013-02-04 15:30:00,
2013-02-04 10:40:00,26.0,12.0,29.63,SE,144,5.0,5.0,55,0.00,,,0.00,332,Wunderground v.1.15,2013-02-04 15:40:00,
2013-02-04 10:50:00,26.1,10.4,29.64,SSW,192,5.0,18.0,51,0.00,,,0.00,104,Wunderground v.1.15,2013-02-04 15:50:00,
2013-02-04 11:00:00,25.9,10.2,29.63,SSW,202,5.0,7.0,51,0.00,,,0.00,113,Wunderground v.1.15,2013-02-04 16:00:00,
2013-02-04 11:10:00,25.4,9.3,29.63,SW,217,6.0,6.0,50,0.00,,,0.00,116,Wunderground v.1.15,2013-02-04 16:10:00,
2013-02-04 11:20:00,25.3,10.1,29.63,NNW,336,5.0,5.0,52,0.00,,,0.00,58,Wunderground v.1.15,2013-02-04 16:20:00,
2013-02-04 11:30:00,25.5,9.4,29.62,SSE,163,5.0,9.0,50,0.00,,,0.00,54,Wunderground v.1.15,2013-02-04 16:30:00,
2013-02-04 11:40:00,25.9,10.7,29.63,North,351,6.0,17.0,52,0.00,,,0.00,47,Wunderground v.1.15,2013-02-04 16:40:00,
2013-02-04 11:50:00,25.8,8.8,29.63,SW,236,7.0,17.0,48,0.00,,,0.00,70,Wunderground v.1.15,2013-02-04 16:50:00,
2013-02-04 12:00:00,26.0,7.5,29.63,East,79,6.0,6.0,45,0.00,,,0.00,62,Wunderground v.1.15,2013-02-04 17:00:00,
2013-02-04 12:10:00,26.2,8.2,29.62,South,181,4.0,5.0,46,0.00,,,0.00,63,Wunderground v.1.15,2013-02-04 17:10:00,
2013-02-04 12:30:00,26.6,9.5,29.63,SSE,157,4.0,4.0,48,0.00,,,0.00,132,Wunderground v.1.15,2013-02-04 17:30:00,
2013-02-04 12:40:00,26.5,7.0,29.62,SW,233,5.0,5.0,43,0.00,,,0.00,153,Wunderground v.1.15,2013-02-04 17:40:00,
2013-02-04 12:50:00,26.7,6.6,29.61,SSW,196,6.0,17.0,42,0.00,,,0.00,197,Wunderground v.1.15,2013-02-04 17:50:00,
2013-02-04 13:11:00,26.7,6.6,29.62,SSE,162,4.0,4.0,42,0.00,,,0.00,69,Wunderground v.1.15,2013-02-04 18:11:00,
2013-02-04 13:20:00,27.1,7.0,29.62,West,281,5.0,5.0,42,0.00,,,0.00,93,Wunderground v.1.15,2013-02-04 18:20:00,
2013-02-04 13:30:00,26.7,5.6,29.62,South,180,7.0,9.0,40,0.00,,,0.00,123,Wunderground v.1.15,2013-02-04 18:30:00,
2013-02-04 13:40:00,26.5,5.9,29.63,South,187,6.0,18.0,41,0.00,,,0.00,132,Wunderground v.1.15,2013-02-04 18:40:00,
2013-02-04 14:00:00,26.6,7.1,29.63,SW,219,4.0,18.0,43,0.00,,,0.00,160,Wunderground v.1.15,2013-02-04 19:00:00,
2013-02-04 14:10:00,27.0,6.9,29.64,SSW,206,7.0,9.0,42,0.00,,,0.00,146,Wunderground v.1.15,2013-02-04 19:10:00,
2013-02-04 14:11:00,26.9,6.8,29.63,SSE,152,4.0,6.0,42,0.00,,,0.00,155,Wunderground v.1.15,2013-02-04 19:11:00,
2013-02-04 14:30:00,26.8,7.8,29.64,WSW,237,5.0,5.0,44,0.00,,,0.00,113,Wunderground v.1.15,2013-02-04 19:30:00,
2013-02-04 14:40:00,26.5,7.5,29.64,SW,234,5.0,5.0,44,0.00,,,0.00,76,Wunderground v.1.15,2013-02-04 19:40:00,
2013-02-04 15:00:00,26.4,6.4,29.64,SSE,158,2.0,18.0,42,0.00,,,0.00,90,Wunderground v.1.15,2013-02-04 20:00:00,
2013-02-04 15:11:00,26.9,5.8,29.65,WSW,258,5.0,5.0,40,0.00,,,0.00,204,Wunderground v.1.15,2013-02-04 20:11:00,
2013-02-04 15:20:00,26.9,5.2,29.65,SSE,149,7.0,7.0,39,0.00,,,0.00,74,Wunderground v.1.15,2013-02-04 20:20:00,
2013-02-04 15:30:00,26.5,5.4,29.65,East,85,6.0,6.0,40,0.00,,,0.00,51,Wunderground v.1.15,2013-02-04 20:30:00,
2013-02-04 15:40:00,26.5,5.9,29.65,WSW,240,8.0,8.0,41,0.00,,,0.00,39,Wunderground v.1.15,2013-02-04 20:40:00,
2013-02-04 16:00:00,26.2,5.1,29.65,South,190,7.0,7.0,40,0.00,,,0.00,28,Wunderground v.1.15,2013-02-04 21:00:00,
2013-02-04 16:11:00,26.2,4.6,29.65,SW,217,7.0,7.0,39,0.00,,,0.00,33,Wunderground v.1.15,2013-02-04 21:11:00,
2013-02-04 16:20:00,26.2,4.6,29.66,South,185,7.0,11.0,39,0.00,,,0.00,35,Wunderground v.1.15,2013-02-04 21:20:00,
2013-02-04 16:30:00,26.0,4.4,29.66,South,178,7.0,11.0,39,0.00,,,0.00,18,Wunderground v.1.15,2013-02-04 21:30:00,
2013-02-04 16:40:00,26.0,3.8,29.66,South,181,8.0,8.0,38,0.00,,,0.00,11,Wunderground v.1.15,2013-02-04 21:40:00,
2013-02-04 16:50:00,25.9,3.7,29.66,SSE,149,6.0,22.0,38,0.00,,,0.00,5,Wunderground v.1.15,2013-02-04 21:50:00,
2013-02-04 17:00:00,25.7,3.0,29.67,SSW,207,6.0,22.0,37,0.00,,,0.00,0,Wunderground v.1.15,2013-02-04 22:00:00,
2013-02-04 17:10:00,25.4,1.5,29.68,South,182,7.0,7.0,35,0.00,,,0.00,0,Wunderground v.1.15,2013-02-04 22:10:00,
2013-02-04 17:11:00,25.6,2.9,29.67,SSE,161,6.0,8.0,37,0.00,,,0.00,0,Wunderground v.1.15,2013-02-04 22:11:00,
2013-02-04 17:30:00,25.3,2.0,29.68,SE,126,5.0,5.0,36,0.00,,,0.00,0,Wunderground v.1.15,2013-02-04 22:30:00,
2013-02-04 17:50:00,25.0,3.5,29.69,ENE,76,3.0,3.0,39,0.00,,,0.00,0,Wunderground v.1.15,2013-02-04 22:50:00,
2013-02-04 18:11:00,24.5,2.5,29.70,SE,126,3.0,5.0,38,0.00,,,0.00,0,Wunderground v.1.15,2013-02-04 23:11:00,
2013-02-04 18:20:00,24.4,2.9,29.70,South,181,3.0,3.0,39,0.00,,,0.00,0,Wunderground v.1.15,2013-02-04 23:20:00,
2013-02-04 18:30:00,24.2,2.2,29.70,SSE,166,3.0,4.0,38,0.00,,,0.00,0,Wunderground v.1.15,2013-02-04 23:30:00,
2013-02-04 18:40:00,24.0,2.6,29.71,SSW,208,3.0,3.0,39,0.00,,,0.00,0,Wunderground v.1.15,2013-02-04 23:40:00,
2013-02-04 18:50:00,23.8,1.8,29.71,SSW,207,4.0,12.0,38,0.00,,,0.00,0,Wunderground v.1.15,2013-02-04 23:50:00,
2013-02-04 19:00:00,23.6,2.8,29.71,South,189,3.0,12.0,40,0.00,,,0.00,0,Wunderground v.1.15,2013-02-05 00:00:00,
2013-02-04 19:11:00,23.4,2.0,29.72,South,174,3.0,3.0,39,0.00,,,0.00,0,Wunderground v.1.15,2013-02-05 00:11:00,
2013-02-04 19:20:00,23.3,2.5,29.72,South,169,3.0,3.0,40,0.00,,,0.00,0,Wunderground v.1.15,2013-02-05 00:20:00,
2013-02-04 19:30:00,23.2,2.4,29.73,SSW,194,3.0,3.0,40,0.00,,,0.00,0,Wunderground v.1.15,2013-02-05 00:30:00,
2013-02-04 19:40:00,23.0,2.8,29.74,East,100,2.0,2.0,41,0.00,,,0.00,0,Wunderground v.1.15,2013-02-05 00:40:00,
2013-02-04 19:50:00,22.8,3.1,29.74,ESE,103,1.0,1.0,42,0.00,,,0.00,0,Wunderground v.1.15,2013-02-05 00:50:00,
2013-02-04 20:00:00,22.1,3.5,29.74,East,94,1.0,1.0,44,0.00,,,0.00,0,Wunderground v.1.15,2013-02-05 01:00:00,
2013-02-04 20:11:00,21.6,4.0,29.75,ENE,73,1.0,1.0,46,0.00,,,0.00,0,Wunderground v.1.15,2013-02-05 01:11:00,
2013-02-04 20:20:00,21.3,3.7,29.75,South,178,1.0,1.0,46,0.00,,,0.00,0,Wunderground v.1.15,2013-02-05 01:20:00,
2013-02-04 20:30:00,21.0,3.9,29.76,South,173,0.0,1.0,47,0.00,,,0.00,0,Wunderground v.1.15,2013-02-05 01:30:00,
2013-02-04 20:40:00,20.7,4.1,29.76,SSE,150,1.0,5.0,48,0.00,,,0.00,0,Wunderground v.1.15,2013-02-05 01:40:00,
2013-02-04 20:50:00,20.7,4.1,29.77,NE,45,1.0,8.0,48,0.00,,,0.00,0,Wunderground v.1.15,2013-02-05 01:50:00,
2013-02-04 21:00:00,20.5,3.9,29.78,WNW,292,1.0,1.0,48,0.00,,,0.00,0,Wunderground v.1.15,2013-02-05 02:00:00,
2013-02-04 21:11:00,20.2,3.2,29.78,SSW,200,1.0,1.0,47,0.00,,,0.00,0,Wunderground v.1.15,2013-02-05 02:11:00,
2013-02-04 21:20:00,20.1,3.5,29.78,NW,325,2.0,2.0,48,0.00,,,0.00,0,Wunderground v.1.15,2013-02-05 02:20:00,
2013-02-04 21:30:00,19.9,3.3,29.79,SSW,192,3.0,3.0,48,0.00,,,0.00,0,Wunderground v.1.15,2013-02-05 02:30:00,
2013-02-04 21:40:00,19.7,3.6,29.79,SW,221,3.0,3.0,49,0.00,,,0.00,0,Wunderground v.1.15,2013-02-05 02:40:00,
2013-02-04 21:50:00,19.4,2.9,29.80,SSE,154,3.0,12.0,48,0.00,,,0.00,0,Wunderground v.1.15,2013-02-05 02:50:00,
2013-02-04 22:00:00,19.2,2.7,29.80,WSW,246,4.0,4.0,48,0.00,,,0.00,0,Wunderground v.1.15,2013-02-05 03:00:00,
2013-02-04 22:11:00,19.0,3.0,29.81,South,170,2.0,2.0,49,0.00,,,0.00,0,Wunderground v.1.15,2013-02-05 03:11:00,
2013-02-04 22:20:00,18.7,2.2,29.81,South,171,2.0,7.0,48,0.00,,,0.00,0,Wunderground v.1.15,2013-02-05 03:20:00,
2013-02-04 22:30:00,18.4,1.5,29.82,NW,304,3.0,3.0,47,0.00,,,0.00,0,Wunderground v.1.15,2013-02-05 03:30:00,
2013-02-04 22:40:00,18.2,0.9,29.82,SSE,149,2.0,2.0,46,0.00,,,0.00,0,Wunderground v.1.15,2013-02-05 03:40:00,
2013-02-04 22:50:00,18.0,0.2,29.82,SSE,150,3.0,3.0,45,0.00,,,0.00,0,Wunderground v.1.15,2013-02-05 03:50:00,
2013-02-04 23:00:00,17.7,0.4,29.83,SW,225,1.0,1.0,46,0.00,,,0.00,0,Wunderground v.1.15,2013-02-05 04:00:00,
2013-02-04 23:11:00,17.6,0.8,29.83,SSW,195,1.0,1.0,47,0.00,,,0.00,0,Wunderground v.1.15,2013-02-05 04:11:00,
2013-02-04 23:20:00,17.4,0.6,29.84,NNE,26,1.0,1.0,47,0.00,,,0.00,0,Wunderground v.1.15,2013-02-05 04:20:00,
2013-02-04 23:30:00,17.2,-0.1,29.84,SE,124,2.0,2.0,46,0.00,,,0.00,0,Wunderground v.1.15,2013-02-05 04:30:00,
2013-02-04 23:40:00,17.0,0.2,29.84,WSW,255,1.0,1.0,47,0.00,,,0.00,0,Wunderground v.1.15,2013-02-05 04:40:00,
2013-02-04 23:50:00,16.8,0.0,29.85,NE,35,1.0,1.0,47,0.00,,,0.00,0,Wunderground v.1.15,2013-02-05 04:50:00,